#timestamp,LO_Frequency,Hit,StdDev 
1614333615.7,286046990.8,P
1614333635.6,286046991.2,N
1614333655.4,286046992.6,N
1614333675.3,286046978.9,Y
1614333695.1,286047013.3,P
1614333696.0,286047013.3,N
1614333715.8,286047031.1,P
1614333735.7,286047042.7,Y
1614333755.5,286047038.4,P
1614333775.3,286047042.6,P
1614333795.2,286047044.6,P
1614333815.0,286047050.3,Y
1614333815.9,286047050.3,P
1614333835.8,286047018.4,N
1614333855.6,286047019.7,N
1614333875.4,286047025.1,N
1614333895.3,286047024.6,N
1614333915.1,286047023.2,N
1614333935.9,286047022.2,N
1614333955.7,286047019.5,N
1614333975.5,286047020.3,N
1614333995.4,286047024.0,N
1614334015.2,286046989.4,N
1614334035.0,286046969.2,N
1614334036.0,286046969.2,N
1614334055.8,286046950.6,N
1614334075.6,286046939.1,N
1614334095.5,286046931.3,N
1614334115.3,286046925.6,N
1614334135.1,286046918.9,N
1614334155.9,286046913.7,N
1614334175.7,286046913.1,N
1614334195.6,286046910.6,N
1614334215.4,286046911.5,N
1614334235.2,286046908.7,N
1614334255.1,286046908.0,N
1614334256.0,286046908.0,N
1614334275.8,286046903.7,N
1614334295.6,286046903.2,N
1614334315.5,286046898.0,N
1614334335.3,286046896.0,N
1614334355.2,286046891.1,N
1614334375.9,286046890.5,N
1614334395.7,286046889.9,N
1614334415.6,286046889.5,N
1614334435.4,286046890.8,N
1614334455.2,286046890.1,N
1614334475.1,286046887.9,N
1614334476.0,286046887.9,N
1614334495.8,286046890.1,N
1614334515.7,286046890.1,N
1614334535.5,286046889.6,Y
1614334555.3,286046973.2,P
1614334575.2,286046976.5,N
1614334595.0,286046974.9,N
1614334595.9,286046974.9,N
1614334615.7,286046976.8,N
1614334635.6,286046972.9,N
1614334655.4,286046970.9,N
1614334675.3,286046972.3,N
1614334695.1,286046968.5,N
1614334696.0,286046968.5,N
1614334715.8,286046967.3,N
1614334735.7,286046964.7,N
1614334755.5,286046963.0,N
1614334775.4,286046961.8,N
1614334795.2,286046961.7,N
1614334815.0,286046964.8,N
1614334815.9,286046964.8,N
1614334835.8,286046963.1,N
1614334855.6,286046963.7,N
1614334875.4,286046963.7,N
1614334895.3,286046962.7,Y
1614334915.1,286046993.8,P
1614334935.9,286046993.9,N
1614334955.7,286046998.0,N
1614334975.5,286046998.0,N
1614334995.4,286046995.9,N
1614335015.2,286046996.4,N
1614335035.0,286046996.1,N
1614335035.9,286046996.1,N
1614335055.8,286046995.3,N
1614335075.6,286046993.7,N
1614335095.5,286046990.4,N
1614335115.3,286046991.2,N
1614335135.1,286046990.1,N
1614335155.9,286046990.5,N
1614335175.7,286046991.3,N
1614335195.5,286046991.7,N
1614335215.4,286046989.1,N
1614335235.2,286046988.8,N
1614335255.1,286046986.4,N
1614335256.0,286046986.4,N
1614335275.8,286046977.3,Y
1614335295.6,286046985.1,P
1614335315.5,286046981.4,P
1614335335.3,286046979.4,P
1614335355.2,286046985.2,Y
1614335375.9,286046996.8,P
1614335395.7,286046995.8,N
1614335415.6,286046992.7,N
1614335435.4,286046990.2,N
1614335455.2,286046988.7,N
1614335475.1,286046985.9,Y
1614335476.0,286046985.9,P
1614335495.8,286046990.5,P
1614335515.7,286046989.1,P
1614335535.5,286046985.6,Y
1614335555.3,286046992.3,P
1614335575.2,286046991.6,P
1614335595.0,286046990.1,P
1614335595.9,286046990.1,Y
1614335615.8,286046996.9,P
1614335635.6,286046998.8,N
1614335655.4,286047001.3,N
1614335675.3,286047005.9,N
1614335695.1,286047004.5,N
1614335715.8,286047008.4,N
1614335735.7,286047007.9,N
1614335755.5,286047008.4,N
1614335775.4,286047006.9,N
1614335795.2,286047009.1,N
1614335815.0,286047009.2,N
1614335815.9,286047009.2,N
1614335835.8,286047005.4,N
1614335855.6,286047001.6,N
1614335875.4,286046998.3,N
1614335895.3,286046997.6,N
1614335915.1,286046991.9,N
1614335935.9,286046988.5,N
1614335955.7,286046989.5,N
1614335975.5,286046984.1,N
1614335995.4,286046985.0,N
1614336015.2,286046986.3,N
1614336035.0,286046984.0,N
1614336035.9,286046984.0,N
1614336055.8,286046986.3,N
1614336075.6,286046985.6,N
1614336095.5,286046982.3,N
1614336115.3,286046984.9,N
1614336135.1,286046980.4,N
1614336155.9,286046976.8,N
1614336175.7,286046977.3,N
1614336195.5,286046977.6,N
1614336215.4,286046977.3,N
1614336235.2,286046981.7,N
1614336255.1,286046984.4,N
1614336256.0,286046984.4,N
1614336275.8,286046984.2,N
1614336295.6,286046984.3,N
1614336315.5,286046983.8,N
1614336335.3,286046985.1,N
1614336355.1,286046986.3,N
1614336375.9,286046985.5,N
1614336395.7,286046988.7,N
1614336415.6,286046991.3,N
1614336435.4,286046985.5,N
1614336455.3,286046983.6,Y
1614336475.1,286046991.7,P
1614336495.8,286046993.5,N
1614336515.7,286046993.9,N
1614336535.5,286046988.6,Y
1614336555.4,286046999.1,P
1614336575.2,286046999.3,N
1614336595.0,286046995.6,N
1614336595.9,286046995.6,N
1614336615.8,286046997.7,N
1614336635.6,286046995.2,N
1614336655.5,286046997.4,N
1614336675.3,286047011.9,Y
1614336695.1,286046997.8,P
1614336715.9,286046996.6,P
1614336735.7,286046990.1,P
1614336755.6,286046991.3,N
1614336775.4,286046987.0,Y
1614336795.3,286046993.8,P
1614336815.1,286046994.9,P
1614336835.8,286046994.7,P
1614336855.7,286046992.1,Y
1614336875.5,286046995.6,P
1614336895.4,286046995.2,P
1614336915.2,286046992.1,P
1614336935.0,286046992.7,Y
1614336935.9,286046992.7,P
1614336955.8,286047000.3,N
1614336975.6,286046998.1,N
1614336995.5,286046998.1,N
1614337015.3,286046995.7,N
1614337035.1,286046994.0,N
1614337055.9,286046994.1,N
1614337075.7,286046995.5,N
1614337095.6,286046993.9,N
1614337115.4,286046996.3,N
1614337135.2,286046996.9,N
1614337155.1,286047001.9,N
1614337156.0,286047001.9,N
1614337175.8,286047003.6,N
1614337195.6,286047001.6,N
